Location: Home
(42.5358°N, 72.7383°W)
Time: 18:37:54
(UTC-05:00)

Explorer 7 - Pass Details

Date: 07 December 2021
Orbit: 483 x 674 km, 50.3° (Epoch: 23 January)

Event Time Altitude Azimuth Distance (km) Brightness Sun altitude
Rises 05:12:10 0° 255° (WSW) 2,867 - -20.5°
Reaches altitude 10° 05:14:36 10° 261° (W) 1,931 - -20.1°
Exits shadow 05:18:19 46° 310° (NW) 778 7.1 -19.4°
Maximum altitude 05:18:52 49° 337° (NNW) 739 7.2 -19.3°
Drops below altitude 10° 05:22:55 10° 53° (NE) 1,818 10.0 -18.6°
Sets 05:25:08 0° 59° (ENE) 2,680 11.0 -18.2°
